{"data":{"norad_id":66466,"epoch":"2026-09-20T09:00:44.207424Z","epoch_age_seconds":101102,"freshness":"FRESH","line1":"1 66466U 25262L   26263.37551166  .00011875  00000+0  44019-3 0  9990","line2":"2 66466  43.0019 276.4686 0001328 270.0126  90.0573 15.27592466 48685","mean_motion":15.27592466,"eccentricity":0.0001328,"inclination_deg":43.0019,"raan_deg":276.4686,"arg_perigee_deg":270.0126,"mean_anomaly_deg":90.0573,"bstar":0.00044019,"rev_number":4868,"period_min":94.265979444808,"perigee_km":482.10060804841,"apogee_km":483.92292916135,"semimajor_km":6861.1487686049,"source":"CELESTRAK","updated_at":"2026-09-21T09:00:35.914341Z"}}